Location: North Evanston
(42.0634°N, 87.6976°W)
Time: 10:59:45
(UTC+00:00)

Vanguard 2 Rocket - Pass Details

Date: 18 May 2026
Orbit: 553 x 3286 km, 32.9° (Epoch: 11 June)

Event Time Altitude Azimuth Distance (km) Brightness Sun altitude
Rises 20:54:49 0° 277° (W) 6,387 11.9 44.7°
Reaches altitude 10° 20:58:55 10° 271° (W) 5,649 11.9 44.0°
Maximum altitude 21:15:40 45° 208° (SSW) 4,043 11.2 40.9°
Drops below altitude 10° 21:33:07 10° 143° (SE) 5,835 10.9 37.7°
Sets 21:37:30 0° 138° (SE) 6,601 11.0 36.9°
